Weather in Breuil-Cervinia

Italy     45°56′03″N   7°37′52″E
temp.,
°C
wind,
m/s
gust,
m/s
humid.,
%
clouds,
%
prec.,
mm/h
press.,
hPa
HPBL,
m
13 april, tue
tue1323:00−18nnw559986 0.1 103251
02:00−19nnw559337 0.2 103444
05:00−20nw548123 0.0 103430
08:00−17nw44690 0.0 103144
11:00−10nw44590 0.0 1024305
14:00−9nw43670 0.0 1024580
17:00−9nw437816 0.0 1024566
20:00−15nnw339976 0.0 103023
14 april, wed
wed1423:00−18nnw22520 0.0 103313
02:00−17nw12240 0.0 103110
05:00−17nw22280 0.0 102911
08:00−14nw12390 0.0 102613
11:00−9wnw12290 0.0 1021576
14:00−8nw226774 0.1 1020985
17:00−8nw3375100 0.8 1020928
20:00−12nw339799 2.0 102448
15 april, thu
thu1523:00−17nw1210095 0.2 103012
02:00−18wnw118410 0.2 103010
05:00−18nnw12761 0.0 102910
08:00−15nnw11750 0.0 102717
11:00−12w12405 0.0 1022811
14:00−9wnw2278100 0.9 1020940
17:00−9wnw2278100 1.6 1019811
20:00−12nw119897 2.6 102215
16 april, fri
fri1623:00−15sse119970 0.3 102610
02:00−15s229871 0.6 102514
05:00−16s229867 0.3 102416
08:00−13sse339569 0.7 102286
11:00−9sse3277100 0.3 1018785
14:00−8s2291100 1.4 1016581
17:00−7sse2294100 2.8 1015500
20:00−10se229793 5.3 1019186
17 april, sat
sat1723:00−15sse119525 0.3 102511
02:00−15sse117971 0.3 102310
05:00−15s01665 0.0 102310
08:00−12nne116548 0.0 102011
11:00−8nne114714 0.0 1015817
14:00−7nnw226898 0.3 1014785
17:00−6nnw227388 1.8 1013640
20:00−9nnw339792 5.1 1016228